COSMOS 249 DEB, 3911

Orbit data source: Space-Track

COSMOS 249 DEB, 3911 is space debris in LEO originally from a launch on Sun, 20 Oct 1968 UTC launched from the Tyuratam Missile And Space Complex (TTMTR). Debris objects in space refer to the collection of defunct objects orbiting the Earth. Examples of debris include non-operational satellites, rocket bodies, and fragments generated from explosions, collisions, or faulty payload assembly.

Loading next visibility...
Identifier
3911, 1968-091BP
Orbit
LEO
Country
Flag of CISCIS
Related business
Manufacturer
Unknown
Mission
Spacecraft
Bus & Motor
Unknown
Mass
Unknown
Launch date (UTC)
1968-10-20 (58 years ago)
Launch vehicle
Unknown
Launch site
Tyuratam Missile And Space Complex (TTMTR)
Object type
Payload
Rocket body
Debris
Shape & HBR
Unknown shape, 0.1 m
Radar Cross Section
Medium (>0.1 m² and <1 m²)

Expand to show TLE details & history
Last TLE update: 1 day ago

TLE from 1 day ago
0 COSMOS 249 DEB
1 03911U 68091BP  26235.13358290  .00001470  00000-0  39269-3 0  9991
2 03911  62.9180 281.4048 0790657  88.8170 280.3230 13.43288137676316
Epoch: 2026-08-23T03:12Z
TLE epoch observation values (Epoch: 2026-08-23T03:12:21.562Z)
Latitude
0.00001°
Longitude
-98.11905°
Altitude
1,038.891 km
Speed
7.362 km/s
True Right ascension
18h 45m 37s
True Declination
0° 00' 00"
Sunlit
Object was in full shadow at epoch
Visualization orbit readout
Latitude
Unknown
Longitude
Unknown
Altitude
Unknown
Speed
Unknown
Apparent Right ascension
Unknown
Apparent Declination
Unknown
Sunlit
N/A
Visualization observer readout
Local Sidereal Time
03:31:45
Azimuth
Unknown
Elevation
Unknown
Doppler factor
Unknown
Orbital elements
Apogee altitude
1,686.878 km
Perigee altitude
504.993 km
Semi-major axis
7,474.073 km
Eccentricity
0.07907
Inclination
62.918°
RAAN
281.4048°
Arg. of periapsis
88.817°
True anomaly
271.28649°
Mean anomaly
280.323°
Eccentric anomaly
275.81619°
Mean motion
3.35898 °/min
Orbital period
107.18 mins
BSTAR
0.00039269
Loading maneuver chart data...
Computing Atmospheric mass density...
Loading historical data...
Loading historical data...
Loading historical data...
Loading historical data...
Loading historical data...
Loading historical data...
Loading historical data...

Documentation

Showing up to 5 results
|